Hourly Data Report for February 03, 2006

TORONTO CITY
ONTARIO

43°40'00.000" N
79°24'00.000" W
112.50 m
6158355
71508
XTO

Download Data

Hourly Data (February 2006)
Hourly Data Report for February 3, 2006
TIME
LST
Temp Definition
°C
Dew Point Definition
°C
Rel Hum Definition
%
Precip. Amount Definition
mm

Wind Dir Definition
10's deg

Wind Spd Definition
km/h
Visibility Definition
km
Stn Press Definition
kPa
Hmdx Definition


Wind Chill Definition


Weather Definition


00:00 4.7 2.3 84   LegendMM LegendMM   99.05     LegendNANA
01:00 4.4 2.9 90   LegendMM LegendMM   98.90     LegendNANA
02:00 4.3 3.5 95   LegendMM LegendMM   98.83     LegendNANA
03:00 4.4 3.9 97   LegendMM LegendMM   98.73     LegendNANA
04:00 4.9 4.5 97   LegendMM LegendMM   98.61     LegendNANA
05:00 4.8 4.4 97   LegendMM LegendMM   98.49     LegendNANA
06:00 4.4 4.0 97   LegendMM LegendMM   98.44     LegendNANA
07:00 4.4 4.1 98   LegendMM LegendMM   98.40     LegendNANA
08:00 4.6 4.3 98   LegendMM LegendMM   98.36     LegendNANA
09:00 4.8 4.5 98   LegendMM LegendMM   98.35     LegendNANA
10:00 5.0 4.7 98   LegendMM LegendMM   98.36     LegendNANA
11:00 4.7 4.0 95   LegendMM LegendMM   98.38     LegendNANA
12:00 5.0 3.9 93   LegendMM LegendMM   98.45     LegendNANA
13:00 5.1 3.7 91   LegendMM LegendMM   98.48     LegendNANA
14:00 5.5 3.2 85   LegendMM LegendMM   98.55     LegendNANA
15:00 5.6 2.7 82   LegendMM LegendMM   98.71     LegendNANA
16:00 5.6 2.5 80   LegendMM LegendMM   98.90     LegendNANA
17:00 5.4 2.3 80   LegendMM LegendMM   99.10     LegendNANA
18:00 5.1 2.4 83   LegendMM LegendMM   99.25     LegendNANA
19:00 4.9 2.3 83   LegendMM LegendMM   99.42     LegendNANA
20:00 5.0 2.2 82   LegendMM LegendMM   99.47     LegendNANA
21:00 4.7 2.0 83   LegendMM LegendMM   99.52     LegendNANA
22:00 4.3 2.2 86   LegendMM LegendMM   99.57     LegendNANA
23:00 3.8 2.1 89   LegendMM LegendMM   99.65     LegendNANA

Notes on Data Quality.

Legend

  • E = Estimated
  • M = Missing
  • NA = Not Available*
  • [empty] = Indicates an unobserved value
Date modified: